Location: Little Maitland River
(43.8022°N, 81.1549°W)
Time: 14:42:54
(UTC+00:00)

COSMOS 2455 - Pass Details

Date: 09 December 2025
Orbit: 898 x 910 km, 67.1° (Epoch: 19 January)

Event Time Altitude Azimuth Distance (km) Brightness Sun altitude
Exits shadow 09:12:04 34° 68° (ENE) 1,450 4.2 -37.9°
Drops below altitude 10° 09:16:38 10° 114° (ESE) 2,589 5.8 -37.0°
Sets 09:19:21 0° 123° (ESE) 3,526 6.6 -36.5°
